CDT,Max TemperatureF,Mean TemperatureF,Min TemperatureF,Max Dew PointF,MeanDew PointF,Min DewpointF,Max Humidity, Mean Humidity, Min Humidity, Max Sea Level PressureIn, Mean Sea Level PressureIn, Min Sea Level PressureIn, Max VisibilityMiles, Mean VisibilityMiles, Min VisibilityMiles, Max Wind SpeedMPH, Mean Wind SpeedMPH, Max Gust SpeedMPH,PrecipitationIn, CloudCover, Events, WindDirDegrees
2012-10-1,73,62,51,59,51,43,94,70,35,30.09,30.03,29.96,10,10,7,25,7,38,0.10,2,Rain-Thunderstorm,330
2012-10-2,73,58,44,48,42,32,93,58,23,30.12,30.04,29.94,10,10,10,10,5,,0.00,0,,237
2012-10-3,82,68,53,52,45,41,67,47,28,29.96,29.92,29.86,10,10,10,22,12,30,0.00,0,,183
2012-10-4,68,60,51,54,41,36,77,53,39,30.30,30.19,29.95,10,10,5,21,14,30,0.00,5,,28
2012-10-5,60,53,46,39,35,27,71,50,34,30.33,30.24,30.19,10,10,5,17,10,22,0.00,6,,49
2012-10-6,46,42,37,34,33,30,81,64,57,30.39,30.33,30.29,10,10,10,15,9,20,0.00,7,,35
2012-10-7,53,42,30,34,30,27,100,69,38,30.39,30.30,30.20,10,10,10,10,4,,0.00,1,,189
2012-10-8,68,52,35,36,33,30,81,54,26,30.20,30.08,29.95,10,10,10,18,12,25,0.00,0,,198
2012-10-9,73,60,46,43,40,32,87,53,26,30.19,29.95,29.84,10,10,10,18,14,29,0.00,0,,310
2012-10-10,68,52,37,41,34,25,87,52,23,30.32,30.21,30.12,10,10,10,13,6,18,0.00,3,,117
2012-10-11,86,70,53,63,54,39,82,61,37,30.13,30.06,29.98,10,10,10,28,13,34,0.00,1,,200
2012-10-12,68,60,51,63,50,41,94,77,62,30.25,30.15,29.99,10,9,1,23,5,29,1.35,7,Rain-Thunderstorm,15
2012-10-13,84,72,60,64,52,32,94,56,17,29.96,29.83,29.72,10,10,7,28,19,37,0.05,2,Rain-Thunderstorm,216
2012-10-14,77,65,53,46,41,36,67,45,22,30.20,30.09,29.85,10,10,10,20,13,26,0.00,0,,302
2012-10-15,87,68,50,45,39,32,71,41,14,30.16,30.01,29.87,10,10,10,20,11,30,0.00,0,,213
2012-10-16,82,70,57,50,44,36,63,44,25,29.86,29.71,29.53,10,10,10,18,13,25,0.00,0,,194
2012-10-17,71,58,44,46,34,21,67,39,16,29.94,29.70,29.43,10,10,10,26,13,40,0.00,0,,321
2012-10-18,68,52,37,32,25,18,81,40,16,30.09,30.02,29.94,10,10,10,24,11,34,0.00,1,,281
2012-10-19,75,60,44,34,23,12,44,29,14,30.07,29.98,29.85,10,10,10,16,10,22,0.00,0,,275
2012-10-20,84,66,48,48,41,32,63,43,23,29.85,29.77,29.72,10,10,10,12,8,17,0.00,0,,179
2012-10-21,91,68,46,52,39,30,100,46,12,29.75,29.71,29.66,10,10,3,22,5,26,0.00,0,,191
2012-10-22,82,68,55,63,47,34,83,48,28,29.94,29.84,29.75,10,10,10,20,10,29,0.00,0,,208
2012-10-23,95,80,64,63,50,27,94,50,9,29.82,29.78,29.74,10,10,7,25,18,32,0.00,0,,196
2012-10-24,84,75,66,64,62,59,88,68,42,29.83,29.77,29.65,10,10,10,28,18,39,0.00,0,,186
2012-10-25,71,54,37,63,38,30,88,63,44,30.31,30.07,29.63,10,10,10,30,20,39,0.00,4,,351
2012-10-26,50,41,32,30,27,21,93,67,32,30.52,30.42,30.31,10,10,10,17,10,26,0.00,2,,9
2012-10-27,51,37,23,27,23,19,93,59,28,30.42,30.31,30.20,10,10,10,10,3,,0.00,0,,160
2012-10-28,64,47,30,27,24,23,80,46,21,30.28,30.23,30.16,10,10,10,13,5,20,0.00,0,,176
2012-10-29,71,56,42,32,29,27,57,39,21,30.22,30.16,30.08,10,10,10,26,13,33,0.00,0,,199
2012-10-30,82,63,44,39,34,30,66,39,15,30.09,30.02,29.93,10,10,10,15,11,23,0.00,0,,269
2012-10-31,80,58,37,39,36,34,87,49,18,30.12,30.06,30.00,10,10,2,12,4,,0.00,0,,226